This is the latest recevied weather packets stored in our database for station/object OH2TH. If no packets are shown the sender has not sent any weather packets the latest 10 day(s).
| Time | Temp. | Humidity | Pressure | Rain* | Wind** | Luminosity | Snow |
|---|---|---|---|---|---|---|---|
| 1777973400 | 13.33° C | 44% | 100 hPa | 198.88 mm | - | - | - |
| 1777972500 | 12.78° C | 50% | 100 hPa | 198.88 mm | - | - | - |
| 1777971605 | 12.78° C | 50% | 100 hPa | 198.88 mm | - | - | - |
| 1777970705 | 13.33° C | 51% | 100 hPa | 237.74 mm | - | - | - |
| 1777969804 | 13.33° C | 45% | 100 hPa | 237.74 mm | - | - | - |
| 1777968904 | 13.33° C | 47% | 100 hPa | 237.74 mm | - | - | - |
| 1777968004 | 13.33° C | 47% | 100 hPa | 237.74 mm | - | - | - |
| 1777967104 | 12.78° C | 49% | 100 hPa | 245.11 mm | - | - | - |
| 1777966204 | 12.78° C | 51% | 100 hPa | 245.11 mm | - | - | - |
| 1777965304 | 12.78° C | 52% | 100 hPa | 245.11 mm | - | - | - |
| 1777964403 | 11.67° C | 55% | 100 hPa | 245.11 mm | - | - | - |
| 1777963503 | 11.67° C | 55% | 100 hPa | 245.11 mm | - | - | - |
| 1777962603 | 10.56° C | 60% | 100 hPa | 245.11 mm | - | - | - |
| 1777961703 | 10.56° C | 65% | 100 hPa | 245.11 mm | - | - | - |
| 1777960803 | 9.44° C | 70% | 100 hPa | 245.11 mm | - | - | - |
| 1777959903 | 8.33° C | 74% | 100 hPa | 245.11 mm | - | - | - |
| 1777959003 | 7.78° C | 79% | 100 hPa | 245.11 mm | - | - | - |
| 1777958102 | 7.78° C | 81% | 100 hPa | 245.11 mm | - | - | - |
| 1777957202 | 6.67° C | 82% | 100 hPa | 245.11 mm | - | - | - |
| 1777956302 | 6.67° C | 88% | 100 hPa | 245.11 mm | - | - | - |
| 1777955402 | 5.56° C | 90% | 100 hPa | 245.11 mm | - | - | - |
| 1777954502 | 5.56° C | 92% | 100 hPa | 245.11 mm | - | - | - |
| 1777953602 | 5° C | 93% | 100 hPa | 245.11 mm | - | - | - |
| 1777952701 | 5° C | 95% | 100 hPa | 245.11 mm | - | - | - |
| 1777951801 | 5° C | 95% | 100 hPa | 245.11 mm | - | - | - |
* Rain latest 24 hours (hover to see other rain measurements)
** Current wind speed in m/s (hover to see current wind gust speed)